Regional Weather Roundup
Issued by NWS Newport/Morehead, NC

Current Version | Previous Version | Graphics & Text | Print | Product List | Glossary Off
Versions: 1 2 3 4 5 6 7 8 9 10 11 12 13 14 15 16 17 18 19 20 21 22 23 24 25 26 27 28 29 30 31 32 33 34 35 36 37 38 39 40 41 42 43 44 45 46 47 48 49 50

000
ASUS42 KMHX 211312
RWRMHX
WEATHER ROUNDUP FOR EASTERN NORTH CAROLINA
NATIONAL WEATHER SERVICE NEWPORT/MOREHEAD CITY NC
900 AM EDT TUE APR 21 2015

NOTE: "FAIR" INDICATES FEW OR NO CLOUDS BELOW 12,000 FEET
WITH NO SIGNIFICANT WEATHER AND/OR OBSTRUCTIONS TO VISIBILITY

NCZ015>017-031-032-045>047-102-103-211400-
NORTH COAST

CITY           SKY/WX    TMP DP  RH WIND       PRES   REMARKS
EDENTON        SUNNY     64  52  65 NW13G20   29.82R
ELIZABETH CITY SUNNY     64  51  62 W18G28    29.80R
KITTY HAWK     SUNNY     66  55  66 W15G22    29.78R
MANTEO         SUNNY     66  54  66 NW13G22   29.80R

$$

NCZ045>047-081-094-103-104-211400-
CENTRAL COAST

CITY           SKY/WX    TMP DP  RH WIND       PRES   REMARKS
FRISCO         MOSUNNY   67  61  81 W14G22    29.80R
SWANQUARTER      N/A     68 N/A N/A NW20G25   29.79R

$$

NCZ095-097-098-100-101-211400-
SOUTHERN COAST

CITY           SKY/WX    TMP DP  RH WIND       PRES   REMARKS
BEAUFORT       MOSUNNY   69  60  73 W14       29.82R
CEDAR ISLAND     N/A     70 N/A N/A W13G18    29.85S
JACKSONVILLE   SUNNY     67  53  61 NW17      29.83R
PINEY ISLAND   PTSUNNY  N/A N/A N/A NW16      29.81R
WILMINGTON     SUNNY     67  56  67 NW18      29.85R


$$

NCZ011>013-027>030-043-044-078>080-089-090>093-098-211400-
COASTAL PLAIN

CITY           SKY/WX    TMP DP  RH WIND       PRES   REMARKS
AHOSKIE        SUNNY     60  46  61 W3        29.84R
CLINTON        SUNNY     63  46  54 N6        29.88S
ELIZABETHTOWN  SUNNY     64  43  46 NW5       29.88S
GOLDSBORO      SUNNY     64  46  51 NW13      29.84R
GREENVILLE     SUNNY     63  46  55 N12       29.88R
HAVELOCK       PTSUNNY   68  59  73 NW16      29.83R
KENANSVILLE    SUNNY     63  43  46 N13       29.88R
KINSTON        SUNNY     64  41  42 NW12      29.86R
NEW BERN       PTSUNNY   66  47  50 NW15G24   29.85R
RICHLANDS      SUNNY     66  52  59 NW10G18   29.85R
ROCKY MOUNT    SUNNY     62  49  62 NW7       29.86R
WASHINGTON     SUNNY     63  48  58 NW15G21   29.84R
WHITEVILLE     SUNNY     64  44  47 N9G17     29.88R

$$

AMZ130-135-150-152-154-156-158-170-250-252-270-ANZ085-086-088-633-658-670-211400-
MARINE OBSERVATIONS

STATION/POSITION TIME  TEMP    WIND        PRES    WAVE   SWELL
                       AIR SEA DIR/SP/G            HT/PER HT/PER
                 (UTC) (F)     (DEG/KT/KT) (MB)    (FT/S) (FT/S)
CHESAPEAKE LIGHT 1300   61     300/ 22/ 22 1008.9
64 E VA BEACH    1250   58 56  270/ 14/ 16 1006.7    5/ 7   5/ 7
DUCK             1200   64 46  280/ 16/ 19 1006.9
2 E DUCK         1211      50                N/A     4/ 8   2/13
10 NE DUCK       NOT AVBL
OREGON INLET     1200   67 67  280/ 13/ 19 1008.0
HATTERAS CG      1200   68 68  270/ 18/ 21 1007.9
DIAMOND BUOY     1250   69 74  270/ 21/ 23 1008.5    7/ 7   3/ 8
CAPE LOOKOUT     1300   66     260/ 13/ 15 1009.5
BEAUFORT LAB     1200   67 66  270/  7/ 16 1008.7
27 SE WRIGHTSVLE 1200   64 68  290/ 16/ 19   N/A
5 SE WRIGHTSVLE  1200   66 65  280/ 17/ 19 1010.1
225 S CAPE HAT   1250   72 72  230/ 16/ 19 1012.6    5/ 6   2/13
41 SE CHARLESTON 1250   69 73  270/ 14/ 16 1012.1    5/ 6   2/ 9

$$



USA.gov is the U.S. government's official web portal to all federal, state and local government web resources and services.